Temp
-16 -17 -17 -17 -17 -17 -17 -17 -16 -16 -16 -16 -16 -16 -16 -16 -16 -16 -16 -16 -16 -16 -15 -15 -15 -15 -15 -15 -15 -15 -15 -15 -15 -15 -15 -15 -15 -15 -15 -15 -15 -15
-16 -16 -17 -17 -17 -17 -17 -17 -17 -17 -17 -17 -17 -17 -16 -16 -16 -16 -16 -16 -16 -16 -16 -16 -16 -16 -16 -16 -16 -15 -15 -16 -16 -16 -16 -16 -16 -16 -16 -15 -15 -15
-16 -16 -16 -17 -17 -17 -17 -18 -18 -17 -17 -17 -17 -17 -17 -17 -17 -17 -16 -16 -16 -16 -16 -16 -16 -16 -16 -16 -16 -16 -16 -16 -16 -16 -16 -16 -16 -16 -16 -16 -16 -16
-16 -16 -16 -17 -17 -17 -17 -18 -18 -18 -18 -18 -18 -17 -17 -17 -17 -17 -17 -17 -17 -16 -16 -16 -16 -16 -16 -16 -16 -16 -16 -16 -16 -16 -16 -16 -16 -16 -16 -16 -16 -16
-17 -16 -17 -17 -17 -17 -18 -18 -18 -18 -18 -18 -18 -18 -18 -17 -17 -17 -17 -17 -17 -17 -17 -17 -17 -17 -17 -17 -17 -16 -16 -16 -16 -16 -16 -16 -16 -16 -16 -16 -16 -16
-17 -17 -17 -17 -17 -17 -17 -17 -18 -18 -18 -18 -18 -18 -18 -17 -17 -17 -17 -17 -17 -17 -17 -17 -17 -17 -17 -17 -17 -17 -17 -17 -17 -17 -16 -16 -16 -16 -16 -16 -16 -16
-17 -17 -17 -17 -17 -17 -17 -17 -18 -18 -18 -18 -18 -18 -18 -18 -17 -17 -17 -17 -17 -17 -17 -17 -17 -17 -17 -17 -17 -17 -17 -17 -17 -17 -17 -17 -17 -17 -17 -17 -17 -17
-17 -17 -17 -17 -17 -17 -17 -17 -18 -18 -18 -18 -18 -18 -18 -18 -18 -18 -18 -17 -17 -17 -17 -17 -17 -17 -17 -17 -17 -17 -17 -17 -17 -17 -17 -17 -17 -17 -17 -17 -17 -17
-17 -17 -17 -17 -17 -17 -17 -17 -17 -18 -18 -18 -18 -18 -18 -18 -18 -18 -18 -18 -18 -18 -18 -18 -18 -18 -18 -18 -18 -18 -17 -17 -17 -17 -18 -18 -18 -17 -17 -17 -17 -17
-17 -18 -17 -17 -17 -17 -17 -18 -17 -18 -18 -18 -18 -18 -18 -18 -18 -18 -18 -18 -18 -18 -18 -18 -18 -18 -18 -18 -18 -18 -18 -18 -18 -18 -18 -18 -18 -18 -18 -18 -18 -18
-17 -17 -18 -18 -18 -18 -18 -18 -18 -18 -18 -18 -18 -18 -18 -18 -18 -18 -18 -18 -18 -18 -18 -18 -18 -18 -18 -18 -18 -18 -18 -18 -18 -18 -18 -18 -18 -18 -18 -18 -18 -18
-18 -18 -18 -18 -18 -18 -18 -18 -18 -18 -18 -18 -18 -18 -18 -18 -18 -18 -18 -18 -18 -18 -18 -18 -18 -18 -18 -18 -19 -19 -18 -18 -18 -18 -18 -18 -18 -18 -18 -18 -18 -18
-18 -18 -18 -18 -18 -18 -18 -18 -18 -18 -18 -18 -18 -18 -18 -18 -18 -18 -18 -18 -18 -18 -18 -18 -18 -18 -18 -18 -18 -18 -18 -18 -18 -18 -18 -18 -18 -18 -18 -18 -18 -18
-18 -18 -19 -19 -19 -18 -18 -18 -18 -18 -18 -18 -18 -18 -18 -18 -18 -18 -18 -18 -18 -18 -18 -18 -18 -18 -18 -18 -18 -18 -18 -18 -18 -18 -19 -19 -19 -18 -18 -18 -18 -18
-18 -18 -19 -19 -19 -19 -19 -19 -19 -19 -18 -18 -18 -18 -18 -18 -18 -18 -18 -19 -18 -18 -18 -18 -18 -18 -18 -18 -18 -18 -18 -19 -19 -19 -19 -19 -19 -19 -19 -19 -19 -19
-19 -19 -19 -19 -19 -19 -19 -19 -19 -19 -19 -19 -19 -18 -18 -18 -18 -18 -18 -18 -19 -19 -18 -18 -18 -18 -18 -19 -19 -18 -18 -18 -19 -19 -19 -19 -19 -19 -19 -19 -19 -19
-19 -19 -19 -19 -19 -19 -19 -19 -19 -19 -19 -19 -19 -19 -19 -19 -18 -18 -18 -18 -18 -18 -18 -18 -18 -19 -19 -19 -19 -19 -18 -18 -19 -19 -19 -19 -19 -19 -19 -19 -19 -19
-19 -19 -19 -19 -19 -19 -19 -19 -19 -19 -19 -19 -19 -19 -19 -19 -19 -19 -18 -19 -19 -19 -19 -18 -18 -18 -19 -19 -19 -19 -19 -19 -19 -19 -19 -19 -19 -19 -19 -19 -19 -19
-19 -19 -19 -19 -19 -19 -19 -19 -19 -19 -19 -19 -19 -19 -19 -19 -19 -19 -19 -19 -19 -19 -19 -19 -19 -19 -19 -19 -19 -20 -19 -19 -19 -20 -20 -19 -19 -19 -19 -19 -19 -19
-20 -20 -19 -19 -19 -19 -19 -19 -19 -19 -19 -19 -19 -19 -19 -19 -19 -19 -19 -19 -19 -19 -19 -19 -19 -20 -20 -20 -20 -20 -20 -20 -20 -20 -20 -20 -20 -20 -19 -19 -19 -19
-20 -20 -20 -20 -20 -20 -20 -20 -20 -20 -20 -20 -19 -19 -19 -19 -19 -19 -19 -19 -19 -19 -20 -20 -20 -20 -20 -21 -20 -20 -20 -20 -20 -20 -20 -20 -20 -20 -19 -19 -19 -19
-20 -20 -20 -20 -20 -20 -20 -20 -20 -20 -20 -20 -20 -20 -20 -20 -20 -20 -20 -20 -20 -20 -20 -20 -20 -21 -21 -21 -21 -20 -20 -20 -20 -20 -20 -20 -19 -19 -19 -19 -19 -19
-20 -20 -21 -21 -21 -21 -21 -21 -21 -21 -21 -21 -21 -21 -21 -21 -21 -20 -20 -20 -20 -20 -20 -21 -21 -21 -21 -20 -20 -20 -20 -20 -20 -20 -20 -20 -20 -20 -19 -19 -19 -19
-21 -21 -21 -21 -21 -21 -21 -21 -21 -21 -21 -21 -21 -21 -21 -21 -21 -21 -21 -20 -21 -21 -21 -21 -21 -21 -20 -20 -20 -20 -20 -20 -20 -20 -20 -20 -20 -20 -20 -20 -20 -20
-21 -21 -21 -21 -21 -21 -21 -21 -21 -21 -21 -21 -21 -21 -21 -21 -21 -21 -21 -21 -21 -21 -21 -21 -21 -21 -21 -21 -21 -21 -21 -21 -21 -20 -20 -20 -20 -20 -20 -20 -20 -20
-22 -22 -22 -22 -22 -22 -21 -21 -21 -21 -22 -22 -21 -21 -21 -21 -21 -21 -21 -21 -21 -21 -21 -21 -21 -21 -21 -21 -21 -21 -21 -21 -21 -21 -21 -21 -21 -21 -21 -21 -21 -21
Height
5745 5746 5747 5747 5747 5747 5747 5747 5748 5747 5747 5748 5748 5748 5748 5748 5749 5749 5749 5748 5748 5748 5748 5748 5747 5747 5748 5748 5748 5748 5748 5749 5749 5749 5749 5749 5750 5750 5750 5751 5751 5752
5742 5743 5744 5744 5745 5745 5745 5745 5745 5745 5745 5745 5745 5746 5746 5746 5746 5746 5746 5746 5746 5746 5746 5746 5746 5746 5746 5746 5746 5746 5746 5746 5746 5747 5747 5747 5747 5747 5748 5748 5749 5749
5740 5740 5741 5742 5742 5743 5743 5743 5743 5743 5743 5743 5743 5743 5744 5744 5744 5744 5744 5744 5744 5744 5744 5744 5744 5744 5744 5744 5744 5744 5744 5744 5744 5744 5745 5745 5745 5745 5745 5746 5746 5747
5736 5737 5738 5739 5740 5741 5741 5741 5741 5741 5741 5741 5741 5741 5741 5741 5741 5741 5741 5741 5742 5742 5742 5742 5742 5742 5742 5742 5742 5742 5742 5742 5742 5742 5743 5743 5743 5743 5743 5744 5744 5744
5732 5734 5735 5737 5738 5738 5739 5739 5739 5739 5739 5739 5739 5739 5738 5739 5739 5739 5739 5739 5739 5739 5739 5739 5739 5739 5739 5739 5739 5739 5740 5740 5740 5740 5740 5741 5741 5741 5741 5742 5742 5742
5730 5732 5733 5734 5735 5736 5737 5737 5737 5737 5737 5737 5737 5737 5737 5736 5736 5736 5736 5736 5736 5736 5736 5737 5737 5737 5737 5737 5737 5736 5737 5737 5737 5738 5738 5738 5739 5739 5739 5740 5740 5740
5728 5729 5730 5731 5732 5733 5735 5735 5735 5735 5735 5735 5735 5735 5735 5735 5734 5734 5734 5734 5733 5733 5733 5734 5734 5734 5734 5734 5734 5734 5734 5734 5734 5734 5735 5735 5736 5737 5737 5738 5738 5738
5725 5726 5727 5727 5728 5730 5732 5733 5733 5732 5732 5733 5733 5732 5733 5733 5732 5732 5731 5731 5731 5731 5731 5731 5731 5731 5731 5731 5731 5731 5731 5731 5731 5731 5732 5732 5733 5734 5734 5735 5735 5736
5722 5723 5724 5724 5724 5726 5728 5729 5730 5730 5730 5730 5730 5729 5730 5730 5730 5729 5729 5729 5729 5729 5729 5729 5729 5729 5729 5728 5728 5728 5728 5729 5729 5729 5729 5730 5730 5730 5731 5732 5732 5733
5719 5720 5720 5721 5720 5721 5723 5725 5726 5727 5727 5726 5726 5726 5726 5726 5727 5727 5726 5726 5726 5727 5727 5727 5727 5727 5726 5725 5725 5726 5726 5726 5726 5727 5727 5727 5727 5728 5728 5728 5729 5730
5714 5715 5716 5717 5717 5718 5719 5720 5721 5722 5723 5723 5723 5723 5723 5723 5723 5723 5723 5723 5724 5724 5724 5724 5724 5724 5723 5723 5722 5723 5724 5724 5724 5724 5725 5725 5725 5725 5725 5726 5726 5726
5710 5711 5712 5712 5713 5714 5715 5716 5717 5718 5719 5719 5719 5720 5720 5720 5720 5720 5720 5720 5721 5721 5721 5721 5721 5721 5721 5720 5720 5721 5721 5722 5722 5721 5721 5722 5722 5723 5723 5724 5723 5723
5706 5706 5708 5708 5709 5710 5710 5711 5712 5714 5714 5715 5715 5716 5716 5716 5716 5716 5716 5716 5717 5717 5717 5718 5718 5718 5717 5717 5718 5718 5718 5718 5718 5718 5718 5719 5720 5720 5720 5721 5721 5721
5701 5702 5703 5704 5705 5705 5706 5706 5707 5709 5709 5710 5711 5711 5712 5712 5712 5713 5712 5712 5712 5713 5713 5714 5714 5714 5713 5713 5714 5715 5714 5714 5714 5714 5715 5715 5716 5717 5717 5717 5717 5717
5697 5697 5697 5698 5699 5700 5701 5701 5702 5703 5704 5705 5706 5707 5707 5707 5708 5708 5708 5708 5708 5709 5710 5710 5710 5710 5709 5709 5710 5711 5711 5711 5711 5711 5712 5712 5712 5713 5713 5714 5714 5714
5693 5693 5693 5693 5694 5694 5695 5696 5697 5697 5698 5699 5700 5701 5702 5702 5703 5703 5703 5703 5703 5704 5705 5705 5706 5705 5705 5704 5704 5705 5707 5707 5706 5707 5708 5709 5709 5709 5709 5709 5709 5709
5688 5688 5688 5689 5689 5689 5689 5690 5691 5691 5692 5693 5693 5694 5695 5696 5697 5697 5697 5697 5698 5699 5699 5700 5700 5700 5699 5699 5699 5699 5700 5701 5700 5700 5702 5703 5704 5704 5705 5704 5704 5704
5683 5683 5683 5684 5684 5684 5685 5685 5685 5686 5686 5687 5688 5688 5688 5689 5689 5690 5691 5691 5692 5693 5693 5694 5694 5693 5693 5693 5692 5692 5693 5694 5695 5695 5695 5696 5697 5698 5699 5699 5699 5698
5678 5678 5678 5678 5679 5679 5679 5679 5679 5680 5680 5680 5681 5682 5682 5683 5683 5683 5683 5684 5684 5685 5686 5687 5687 5687 5687 5687 5687 5687 5687 5688 5689 5689 5690 5690 5690 5690 5692 5693 5693 5692
5671 5672 5672 5673 5673 5673 5673 5673 5673 5673 5673 5673 5674 5674 5675 5675 5676 5677 5677 5677 5678 5678 5678 5679 5680 5680 5680 5680 5680 5681 5681 5682 5683 5683 5683 5684 5683 5684 5685 5686 5686 5686
5665 5665 5666 5666 5667 5667 5667 5666 5666 5666 5666 5666 5666 5667 5667 5668 5669 5669 5670 5671 5672 5672 5672 5672 5673 5673 5674 5674 5674 5675 5675 5676 5676 5676 5676 5676 5676 5676 5677 5678 5679 5679
5659 5659 5659 5660 5660 5660 5660 5660 5660 5660 5660 5660 5660 5660 5660 5661 5662 5662 5664 5665 5665 5666 5666 5666 5666 5666 5667 5667 5667 5668 5669 5669 5669 5669 5669 5669 5669 5668 5668 5669 5670 5671
5652 5652 5653 5653 5653 5653 5653 5653 5653 5653 5653 5653 5654 5654 5654 5655 5655 5656 5657 5658 5658 5658 5658 5659 5659 5659 5659 5659 5660 5660 5661 5661 5661 5662 5662 5662 5662 5661 5661 5661 5661 5661
5645 5645 5645 5645 5645 5645 5646 5646 5646 5646 5646 5646 5647 5647 5648 5648 5649 5651 5651 5651 5650 5650 5650 5651 5651 5652 5652 5652 5652 5652 5653 5653 5654 5654 5654 5654 5654 5654 5654 5653 5653 5652
5637 5637 5637 5637 5637 5637 5638 5638 5639 5639 5639 5639 5640 5640 5641 5642 5644 5644 5645 5644 5644 5643 5642 5643 5643 5644 5644 5644 5644 5644 5645 5645 5646 5646 5647 5646 5646 5646 5646 5646 5646 5646
5630 5630 5629 5630 5630 5630 5631 5631 5631 5632 5632 5632 5632 5632 5633 5635 5637 5637 5637 5637 5637 5636 5635 5635 5636 5636 5637 5636 5636 5637 5637 5637 5638 5638 5639 5639 5638 5638 5638 5638 5638 5638
Wind_Speed
25 24 23 21 21 19 18 18 18 17 16 17 17 17 17 17 17 16 16 16 16 16 15 15 15 15 15 16 16 15 15 15 15 14 14 14 14 15 15 15 14 14
26 26 24 21 20 19 17 16 16 15 15 16 17 17 17 17 17 17 17 17 17 17 16 16 16 16 16 16 16 16 16 16 15 15 14 14 14 14 14 14 15 14
27 26 25 22 20 19 17 16 15 15 15 16 17 17 16 17 17 17 17 17 17 17 17 17 16 16 16 16 16 16 16 16 16 16 15 15 14 14 14 14 14 14
28 26 24 22 20 20 19 17 15 15 16 16 16 16 16 16 16 16 16 17 17 17 17 17 16 16 16 16 16 16 17 17 17 17 17 16 16 15 14 14 14 13
30 25 23 22 21 21 20 18 17 16 17 17 17 16 16 16 15 15 16 16 16 17 17 17 16 16 15 15 16 16 17 17 18 18 18 18 18 17 16 16 15 14
30 22 20 21 23 23 21 18 17 17 16 17 18 18 18 17 17 16 16 17 17 17 17 17 16 16 16 16 16 16 17 18 18 19 19 20 19 19 18 18 17 16
28 23 19 18 20 23 22 19 17 18 17 17 18 19 18 19 19 19 18 18 18 18 18 17 17 17 17 17 17 17 17 17 18 19 19 20 20 20 20 19 18 18
26 26 25 23 24 23 22 20 19 19 19 19 19 20 19 20 20 21 21 21 21 21 21 20 19 19 19 19 19 19 19 18 18 18 18 19 19 20 20 20 20 20
27 27 29 32 34 31 27 25 23 22 22 22 22 22 21 22 22 21 21 22 23 23 22 22 22 21 21 21 21 21 21 20 19 18 18 18 18 19 19 19 19 19
32 31 30 33 36 36 33 31 29 27 26 26 26 25 25 26 26 24 23 23 24 23 23 23 23 23 24 26 25 24 23 23 22 20 19 19 19 19 18 18 18 18
34 35 35 35 35 35 35 34 32 29 27 28 28 28 28 28 28 27 26 26 26 26 26 25 25 25 26 26 26 26 25 24 24 24 22 21 21 21 20 19 20 19
35 35 36 36 36 35 34 33 31 29 28 28 28 28 28 27 26 27 29 29 29 29 28 28 28 28 28 27 26 26 26 25 26 26 26 25 24 24 23 22 22 22
37 36 35 35 35 35 35 33 32 30 31 31 30 29 29 29 29 30 31 30 29 29 29 29 30 30 30 29 27 26 27 27 28 29 29 29 27 26 26 25 26 26
41 40 39 38 37 37 37 36 35 34 34 34 34 33 33 33 33 33 32 30 30 31 31 31 31 31 31 30 28 28 27 25 26 28 30 30 29 28 29 29 29 30
44 44 44 43 42 41 40 40 39 39 39 38 38 38 38 38 38 37 37 36 37 38 37 35 34 35 37 36 33 31 28 24 25 27 28 29 29 29 29 30 30 32
47 47 47 47 47 47 46 45 45 44 44 43 43 42 41 41 41 41 42 42 42 41 40 39 39 39 40 40 38 37 36 36 38 38 35 33 32 32 32 32 33 34
50 50 50 50 51 51 51 51 50 50 50 50 49 48 47 46 45 45 45 45 44 44 43 43 43 42 43 43 43 43 44 46 47 46 44 41 39 38 37 38 39 39
53 53 53 54 54 55 55 55 55 55 55 54 53 53 52 52 51 50 49 48 47 46 46 46 46 46 46 46 46 46 46 46 46 46 46 45 43 42 40 39 41 42
54 54 55 56 56 57 58 58 58 58 58 58 57 56 55 55 54 53 52 51 49 48 47 47 47 47 48 48 48 47 47 47 46 46 46 45 45 44 42 41 43 44
51 52 52 53 54 55 57 57 58 58 59 59 59 59 58 58 57 55 54 53 51 50 49 49 48 47 47 47 48 47 47 46 47 47 46 45 45 45 43 43 44 45
50 50 50 50 51 53 54 54 55 55 56 56 57 56 57 57 57 57 55 54 53 52 51 51 50 48 46 45 46 46 46 46 46 46 47 47 48 48 47 46 46 47
53 53 52 52 51 51 52 52 52 53 53 53 53 53 54 54 55 55 55 54 53 52 51 50 50 49 49 49 49 48 49 49 49 49 50 50 51 52 52 52 51 50
54 54 54 53 52 51 51 51 51 51 51 51 51 52 53 53 54 54 55 55 54 53 52 52 52 52 53 53 53 53 52 52 52 52 52 52 52 53 54 55 54 53
54 54 53 53 52 52 51 51 51 50 50 51 51 51 52 52 53 54 55 55 55 54 54 53 53 53 54 55 55 54 53 52 52 52 52 52 52 52 52 53 53 54
53 52 52 52 52 52 52 52 51 51 51 51 51 52 52 52 52 53 53 53 54 53 53 53 52 51 51 52 53 52 52 52 51 51 51 51 51 51 51 51 51 52
52 52 51 51 51 51 51 51 51 51 51 52 52 52 53 53 53 53 53 53 53 53 53 53 52 52 51 51 51 51 51 51 51 50 50 50 50 50 50 51 51 50
Wind_Direction
283 284 279 270 266 267 269 270 269 270 274 276 278 282 283 284 286 287 286 285 284 283 281 279 279 277 276 275 272 269 266 263 263 262 262 262 263 264 265 266 266 264
280 280 275 266 263 263 265 268 268 269 275 279 280 282 284 285 286 286 285 284 282 282 280 278 277 275 275 275 275 275 272 269 266 263 261 259 260 261 262 264 265 264
274 274 270 263 261 262 262 265 268 271 274 279 280 280 280 281 282 283 283 282 281 280 280 278 276 273 272 271 272 273 273 273 271 269 265 262 259 258 258 260 263 264
267 267 263 260 259 259 261 262 267 274 275 275 276 277 279 278 277 278 277 277 278 277 276 276 274 273 271 270 270 270 270 271 271 271 269 266 262 259 256 255 256 259
262 263 258 257 258 258 261 264 267 273 276 274 272 274 277 277 276 275 273 273 273 272 271 271 271 271 270 270 270 269 269 268 269 269 269 268 265 261 258 255 254 254
257 259 258 257 258 259 261 265 268 273 276 275 275 275 277 278 276 272 270 268 267 267 267 266 267 267 267 268 268 268 269 269 268 268 268 268 268 267 264 261 258 256
255 255 260 262 268 267 262 259 263 269 271 273 275 276 279 280 278 274 270 267 264 263 263 263 264 265 265 265 265 264 265 267 268 268 268 268 269 271 271 269 265 262
262 260 260 266 276 273 261 255 259 265 267 269 270 271 274 276 276 275 272 269 266 264 263 263 262 263 265 265 266 266 264 263 265 267 269 270 270 271 271 271 271 268
270 268 266 269 272 271 265 261 262 264 266 267 266 266 268 269 268 269 269 268 269 268 267 267 266 266 268 268 268 268 267 264 263 264 268 270 271 272 271 271 272 273
267 268 269 270 270 270 270 267 266 267 266 265 265 264 265 265 263 261 262 264 266 267 266 268 271 271 273 272 269 266 266 266 264 263 263 265 266 268 270 271 272 272
266 266 266 267 267 268 269 267 268 268 265 265 266 264 265 268 264 259 258 261 263 263 262 265 270 272 271 270 267 267 266 265 264 263 260 259 260 262 264 268 271 272
269 267 266 267 269 269 269 267 267 266 263 265 267 265 264 267 267 262 261 263 263 263 264 266 269 272 271 266 266 271 272 267 263 263 262 260 260 260 260 263 267 271
270 268 267 268 269 270 271 270 267 263 261 263 265 263 262 265 269 269 265 261 261 267 276 278 274 273 271 266 262 266 271 270 266 263 262 262 263 264 264 265 267 269
271 271 270 269 269 270 271 271 269 266 264 263 263 263 262 264 269 271 266 259 261 272 281 282 278 275 274 273 267 262 263 268 270 267 264 263 263 265 266 268 270 272
269 271 271 272 272 272 271 270 271 270 270 268 267 266 265 265 268 270 269 267 270 275 277 277 275 275 277 279 276 266 260 262 270 273 271 268 266 267 268 269 271 272
267 268 270 271 272 273 273 272 272 272 273 273 272 271 270 269 269 270 272 273 273 274 274 274 274 274 275 276 274 269 265 265 270 274 274 274 273 273 273 274 273 273
265 266 267 269 270 271 272 273 273 274 274 274 275 276 275 274 273 273 273 274 274 274 274 274 274 274 273 273 272 271 270 270 273 275 276 276 275 273 272 274 274 273
263 264 265 267 268 269 270 272 273 273 274 274 275 276 276 276 276 276 275 275 275 274 274 274 275 274 274 272 270 270 270 271 274 277 278 278 277 275 273 272 271 271
263 264 265 266 267 268 269 270 271 272 272 273 274 274 274 274 275 275 276 277 277 276 275 275 274 273 272 270 269 268 269 270 272 274 275 276 276 275 274 272 270 270
266 267 267 268 269 269 269 270 270 271 271 272 272 273 273 273 273 274 275 276 276 277 277 276 275 273 271 270 269 270 270 270 271 273 274 274 274 275 274 273 271 271
269 269 269 271 271 270 270 270 270 270 270 271 271 272 272 272 273 273 274 274 275 275 276 276 275 274 273 272 271 271 272 273 274 274 275 275 276 277 277 276 276 275
267 268 269 271 272 271 270 270 269 269 270 270 271 271 271 272 272 272 272 273 274 274 273 273 273 273 274 274 273 273 274 274 275 276 276 277 278 279 280 281 280 279
266 267 268 269 269 268 268 268 268 268 268 268 269 269 269 270 271 270 271 272 273 273 273 272 272 273 274 274 275 275 275 276 276 277 277 278 279 280 281 281 281 280
266 267 267 267 266 266 266 265 265 265 266 266 266 266 266 267 267 268 269 271 273 273 274 273 273 273 274 274 274 275 275 276 276 277 278 278 278 278 278 278 278 277
268 268 267 266 266 265 265 264 264 265 265 265 265 265 265 266 266 267 268 269 271 272 272 273 273 272 272 273 273 274 274 274 275 275 275 276 276 276 276 275 275 275
268 268 267 266 266 265 265 265 264 264 265 266 266 266 266 266 266 267 267 268 269 270 271 272 272 273 273 273 273 274 274 274 274 274 275 275 275 276 275 275 275 275